CZ-6A DEB, 55883

Orbit data source: Space-Track

CZ-6A DEB, 55883 is space debris in SSO originally from a launch on Fri, 11 Nov 2022 UTC launched from the Taiyaun Space Center, China (TSC). Debris objects in space refer to the collection of defunct objects orbiting the Earth. Examples of debris include non-operational satellites, rocket bodies, and fragments generated from explosions, collisions, or faulty payload assembly.

Loading next visibility...
Identifier
55883, 2022-151AAF
Orbit
SSO
Country
Flag of CNCN / PRC
Related business
Manufacturer
SAST
Mission
Spacecraft
Bus & Motor
Unknown
Mass
Unknown
Launch date (UTC)
2022-11-11 (4 years ago)
Launch vehicle
Unknown
Launch site
Taiyaun Space Center, China (TSC)
Object type
Payload
Rocket body
Debris
Shape & HBR
Unknown shape, 0.1 m
Radar Cross Section
Small (<0.1 m²)

Expand to show TLE details & history
Last TLE update: 20 hours ago

TLE from 20 hours ago
0 CZ-6A DEB
1 55883U 22151AAF 26207.05449513  .00007229  00000-0  11426-2 0  9994
2 55883  98.6744 299.6831 0117474 116.4235 244.9079 14.68079207184331
Epoch: 2026-07-26T01:18Z
TLE epoch observation values (Epoch: 2026-07-26T01:18:28.379Z)
Latitude
-0.00005°
Longitude
-23.69307°
Altitude
706.086 km
Speed
7.484 km/s
True Right ascension
19h 58m 43s
True Declination
0° 00' 00"
Sunlit
Object was in full shadow at epoch
Visualization orbit readout
Latitude
Unknown
Longitude
Unknown
Altitude
Unknown
Speed
Unknown
Apparent Right ascension
Unknown
Apparent Declination
Unknown
Sunlit
N/A
Visualization observer readout
Local Sidereal Time
10:39:35
Azimuth
Unknown
Elevation
Unknown
Doppler factor
Unknown
Orbital elements
Apogee altitude
747.029 km
Perigee altitude
581.569 km
Semi-major axis
7,042.436 km
Eccentricity
0.01175
Inclination
98.6744°
RAAN
299.6831°
Arg. of periapsis
116.4235°
True anomaly
243.69642°
Mean anomaly
244.9079°
Eccentric anomaly
244.3014°
Mean motion
3.67247 °/min
Orbital period
98.03 mins
BSTAR
0.0011426
Loading maneuver chart data...
Computing Atmospheric mass density...
Loading historical data...
Loading historical data...
Loading historical data...
Loading historical data...
Loading historical data...
Loading historical data...
Loading historical data...

Documentation

Showing up to 5 results
|